Weather Roundup
Issued by NWS

Home | Current Version | Previous Version | Text Only | Print | Product List | Glossary On
Versions: 1 2 3 4 5 6 7 8 9 10 11 12 13 14 15 16 17 18 19 20 21 22 23 24 25 26 27 28 29 30 31 32 33 34 35 36 37 38 39 40 41 42 43 44 45 46 47 48 49 50
000
NZUS93 KARX 300310
HRRWXR

CURRENT HOURLY OBSERVATIONS ACROSS
MUCH OF THE UPPER MISSISSIPPI VALLEY
NATIONAL WEATHER SERVICE LA CROSSE WI
1000 PM CDT TUE JUL 29 2014


...SOUTHEAST MINNESOTA...


CITY           SKY/WX    TMP DP  RH WIND       PRES   REMARKS
ROCHESTER      CLOUDY    67  57  70 N8        30.09R
ROCHESTER/MAYO CLOUDY    65  57  75 NW8G17    30.08R
WINONA         MOCLDY    70  57  64 CALM      30.06R
AUSTIN         CLEAR     66  55  68 CALM      30.08R
ALBERT LEA     CLEAR     64  55  72 CALM      30.09R
DODGE CENTER   CLOUDY    66  57  72 NE12      30.09R
PRESTON        CLOUDY    65  60  85 N6G16     30.08R
OWATONNA       CLEAR     61  55  82 W5        30.08R
FARIBAULT      CLEAR     66  55  68 W5        30.08R
$$

...ELSEWHERE IN MINNESOTA...


CITY           SKY/WX    TMP DP  RH WIND       PRES   REMARKS
MINNEAPOLIS    PTCLDY    72  54  53 NW6       30.06R
INTNL FALLS    PTCLDY    60  58  92 CALM      30.05R
DULUTH         MOCLDY    58  54  86 NW7       30.06R
RED WING       CLOUDY    63  61  94 CALM      30.04R
REDWOOD FALLS  CLEAR     65  55  70 W5        30.09R
MANKATO        CLEAR     66  54  63 NW6       30.08R
WORTHINGTON    CLEAR     61  55  82 CALM      30.14R
FAIRMONT       CLEAR     64  50  59 NW5       30.10R
$$

...SOUTHWEST WISCONSIN...


CITY           SKY/WX    TMP DP  RH WIND       PRES   REMARKS
LA CROSSE      LGT RAIN  65  62  90 NW6       30.05R
PRAIRIE DU CHI PTCLDY    66  55  67 E5        30.06R
BOSCOBEL       LGT RAIN  63  59  87 CALM      30.06R
LONE ROCK      CLOUDY    66  61  84 W5        30.04S
PLATTEVILLE    MOCLDY    63  58  84 NE3       30.07R
FORT MC COY    MOCLDY    58  57  96 N5        30.06R
CAMP DOUGLAS   MOCLDY    55  55 100 W5        30.05R
VIROQUA        CLOUDY    61  60  96 NW3       30.05S
WIS DELLS      MOCLDY    60  56  86 CALM      30.04R
$$

...ELSEWHERE IN WISCONSIN...


CITY           SKY/WX    TMP DP  RH WIND       PRES   REMARKS
MILWAUKEE      LGT RAIN  61  57  87 SW6       30.01F
MADISON        MOCLDY    64  58  80 NW3       30.04S
GREEN BAY      MOCLDY    60  58  92 W6        29.98R
EAU CLAIRE     LGT RAIN  61  58  90 CALM      30.05F
BLACK RVR FLS  LGT RAIN  61  61 100 CALM      30.06R
MEDFORD        CLOUDY    56  55  95 W5        30.04S
WAUSAU         CLOUDY    60  57  89 NW5       30.00S
WIS RAPIDS     CLOUDY    62  58  86 W6        30.05R
MARSHFIELD     CLOUDY    60  56  86 W6        30.02F
RICE LAKE      CLOUDY    60  58  91 CALM      30.06S
$$

...NORTHEAST IOWA...


CITY           SKY/WX    TMP DP  RH WIND       PRES   REMARKS
WATERLOO       CLEAR     62  57  83 W5        30.06R
DUBUQUE        PTCLDY    66  59  78 NE10      30.06R
DECORAH        MOCLDY    66  55  68 CALM      30.06R
MASON CITY     CLEAR     59  55  87 W7        30.11R
CHARLES CITY   CLEAR     63  57  82 W5        30.09R
OELWEIN        CLEAR     64  59  82 NW6       30.08R
$$

...ELSEWHERE IN IOWA...


CITY           SKY/WX    TMP DP  RH WIND       PRES   REMARKS
DES MOINES     PTCLDY    68  55  63 W6        30.10R
IOWA CITY      CLEAR     65  60  84 W5        30.08R
FORT DODGE     CLEAR     63  55  77 CALM      30.12R
MARSHALLTOWN   CLEAR     63  59  87 NW5       30.09R
CEDAR RAPIDS   CLEAR     61  57  87 W7        30.06R
$$

...NORTHERN ILLINOIS...


CITY           SKY/WX    TMP DP  RH WIND       PRES   REMARKS
CHICAGO-OHARE  MOCLDY    70  56  61 W8        30.00R
DUPAGE         PTCLDY    66  58  75 W7        30.01R
CHICAGO-MIDWAY MOCLDY    71  57  61 SW6       30.00R
MOLINE         CLEAR     65  57  75 W5        30.04S
ROCKFORD       MOCLDY    67  53  61 N6        30.03S
STERLING       PTCLDY    66  57  72 N12       30.04R
PEORIA         CLEAR     68  58  70 W3        30.06R
$$

NOTE: "FAIR" INDICATES FEW OR NO CLOUDS BELOW 12,000 FEET WITH NO
SIGNIFICANT WEATHER AND/OR OBSTRUCTIONS TO VISIBILITY. WIND
SPEEDS ARE IN MILES-PER-HOUR.



USA.gov is the U.S. government's official web portal to all federal, state and local government web resources and services.